Humidity-temperature Sensor

Selected Measurement Type: Air Temperature

 
Air Temperature [°C]     6 entries per hour
Showing data from 8/16/2018 (00:00:00 Z) to 8/9/2018 (00:01:00 Z)
Previous Next [ Day | 3-Days | 7-Days ]
First Last
Prev [ Day | 3-Days | 7-Days ] Next
First Last

Start Time:     :
End Time:     :     
Time (in GMT) :00 :50 :40 :30 :20 :10
Previous Next [ Day | 3-Days | 7-Days ]
First Last
Prev [ Day | 3-Days | 7-Days ] Next
First Last


123 => good data
MM => data is determined as missing
-- => data not received/configured
Back to Top Back to Top
8/16/2018 00:00 to 23:10 23.89 23.79 23.92 23.91 23.91 23.94
8/15/2018 23:00 to 22:10 23.87 23.85 23.89 23.91 23.86 23.82
8/15/2018 22:00 to 21:10 23.79 23.89 23.96 23.88 23.92 23.82
8/15/2018 21:00 to 20:10 23.78 23.74 23.92 23.81 23.85 23.81
8/15/2018 20:00 to 19:10 23.87 23.75 23.71 23.58 23.68 23.59
8/15/2018 19:00 to 18:10 23.64 23.58 23.63 23.65 23.64 23.63
8/15/2018 18:00 to 17:10 23.80 23.61 23.69 23.77 23.82 23.73
8/15/2018 17:00 to 16:10 23.94 24.02 23.87 24.03 23.91 23.90
8/15/2018 16:00 to 15:10 23.80 23.72 23.84 23.91 23.77 23.80
8/15/2018 15:00 to 14:10 23.79 23.76 23.96 23.82 23.71 23.49
8/15/2018 14:00 to 13:10 23.53 23.68 23.36 23.41 23.48 23.63
8/15/2018 13:00 to 12:10 23.44 23.58 23.50 23.37 23.31 23.25
8/15/2018 12:00 to 11:10 23.31 23.20 23.24 23.23 23.17 23.04
8/15/2018 11:00 to 10:10 23.22 23.06 22.91 23.00 22.95 22.82
8/15/2018 10:00 to 9:10 22.90 22.73 22.64 22.86 22.66 22.71
8/15/2018 09:00 to 8:10 22.85 22.40 22.20 22.25 22.56 21.96
8/15/2018 08:00 to 7:10 21.70 21.96 22.30 22.55 22.98 22.82
8/15/2018 07:00 to 6:10 22.68 22.34 22.60 23.02 22.83 22.63
8/15/2018 06:00 to 5:10 22.87 23.27 23.11 23.17 23.00 22.99
8/15/2018 05:00 to 4:10 22.99 23.03 22.90 22.88 23.05 22.96
8/15/2018 04:00 to 3:10 22.87 22.77 22.50 21.99 21.71 22.09
8/15/2018 03:00 to 2:10 22.13 22.17 22.94 22.76 22.89 22.70
8/15/2018 02:00 to 1:10 22.82 22.70 22.75 22.35 22.95 22.97
8/15/2018 01:00 to 0:10 23.38 23.24 22.79 23.15 23.15 22.88
8/15/2018 00:00 to 23:10 22.96 23.05 23.22 23.27 23.30 23.40
8/14/2018 23:00 to 22:10 23.40 23.30 23.27 23.31 23.29 23.01
8/14/2018 22:00 to 21:10 23.24 23.30 23.21 23.39 23.24 23.08
8/14/2018 21:00 to 20:10 23.26 23.19 23.20 23.02 23.09 23.16
8/14/2018 20:00 to 19:10 23.09 23.14 23.20 23.27 23.15 23.14
8/14/2018 19:00 to 18:10 23.19 22.92 22.94 23.07 23.14 23.31
8/14/2018 18:00 to 17:10 23.21 23.50 23.49 23.49 23.40 23.55
8/14/2018 17:00 to 16:10 23.39 23.31 23.39 23.29 23.38 23.49
8/14/2018 16:00 to 15:10 23.49 23.41 23.43 23.56 23.51 23.47
8/14/2018 15:00 to 14:10 23.49 23.35 23.45 23.32 23.16 23.17
8/14/2018 14:00 to 13:10 23.12 23.24 23.40 23.41 23.38 23.35
8/14/2018 13:00 to 12:10 23.40 23.33 23.18 23.27 23.44 23.28
8/14/2018 12:00 to 11:10 23.22 23.13 23.17 23.18 23.23 23.09
8/14/2018 11:00 to 10:10 23.02 22.83 22.81 22.99 23.10 22.57
8/14/2018 10:00 to 9:10 22.66 22.69 22.83 22.58 22.79 22.52
8/14/2018 09:00 to 8:10 22.66 22.54 22.59 22.39 22.85 22.89
8/14/2018 08:00 to 7:10 23.09 23.33 23.18 23.08 23.14 23.09
8/14/2018 07:00 to 6:10 23.16 22.99 22.96 23.04 22.99 22.92
8/14/2018 06:00 to 5:10 23.04 22.95 23.14 22.99 23.03 23.01
8/14/2018 05:00 to 4:10 23.25 23.21 23.14 23.00 22.68 22.31
8/14/2018 04:00 to 3:10 22.45 22.42 22.53 22.76 22.58 22.29
8/14/2018 03:00 to 2:10 22.27 21.95 21.90 22.07 22.04 22.11
8/14/2018 02:00 to 1:10 21.87 21.77 21.86 22.44 22.30 21.93
8/14/2018 01:00 to 0:10 21.48 21.24 21.59 21.97 22.11 22.29
8/14/2018 00:00 to 23:10 22.08 21.91 21.96 22.15 22.38 22.45
8/13/2018 23:00 to 22:10 22.95 22.75 22.79 22.68 22.68 22.75
8/13/2018 22:00 to 21:10 22.64 22.69 22.91 22.92 22.82 22.77
8/13/2018 21:00 to 20:10 22.90 22.80 22.73 22.78 22.86 22.90
8/13/2018 20:00 to 19:10 23.01 22.89 22.94 22.84 22.64 22.31
8/13/2018 19:00 to 18:10 22.75 22.51 22.70 22.32 22.46 22.36
8/13/2018 18:00 to 17:10 22.56 22.65 22.03 21.40 22.00 21.10
8/13/2018 17:00 to 16:10 21.49 20.94 21.18 21.24 22.22 22.23
8/13/2018 16:00 to 15:10 22.28 22.63 22.71 22.65 22.50 22.59
8/13/2018 15:00 to 14:10 22.67 22.95 22.81 22.75 22.84 22.92
8/13/2018 14:00 to 13:10 22.84 22.74 22.65 22.67 22.53 22.54
8/13/2018 13:00 to 12:10 22.60 22.76 22.46 22.66 22.51 22.60
8/13/2018 12:00 to 11:10 22.66 22.51 22.64 22.62 22.58 22.59
8/13/2018 11:00 to 10:10 22.59 22.44 22.63 22.53 22.53 22.55
8/13/2018 10:00 to 9:10 22.53 22.60 22.53 22.60 22.63 22.54
8/13/2018 09:00 to 8:10 22.70 22.67 22.77 22.64 22.60 22.55
8/13/2018 08:00 to 7:10 22.59 22.62 22.52 22.75 22.54 22.74
8/13/2018 07:00 to 6:10 22.71 22.58 22.83 22.85 22.60 22.67
8/13/2018 06:00 to 5:10 22.67 22.83 22.71 22.82 22.72 22.80
8/13/2018 05:00 to 4:10 22.89 23.04 22.94 22.76 22.84 22.87
8/13/2018 04:00 to 3:10 22.83 22.85 22.90 22.99 22.82 22.80
8/13/2018 03:00 to 2:10 22.63 22.41 22.35 22.00 21.86 21.66
8/13/2018 02:00 to 1:10 21.69 21.87 22.37 22.16 22.24 22.09
8/13/2018 01:00 to 0:10 21.86 21.39 21.63 22.12 22.34 22.58
8/13/2018 00:00 to 23:10 22.59 22.56 22.70 22.58 22.57 22.69
8/12/2018 23:00 to 22:10 22.74 22.74 22.50 22.68 22.75 22.55
8/12/2018 22:00 to 21:10 22.72 22.62 22.63 22.63 22.46 22.46
8/12/2018 21:00 to 20:10 22.35 22.40 22.60 22.64 22.47 22.65
8/12/2018 20:00 to 19:10 22.58 22.82 22.68 22.65 22.67 22.79
8/12/2018 19:00 to 18:10 22.69 22.89 22.74 22.72 22.85 22.78
8/12/2018 18:00 to 17:10 22.77 22.80 22.64 22.62 22.66 22.64
8/12/2018 17:00 to 16:10 22.73 22.64 22.70 22.60 22.73 22.80
8/12/2018 16:00 to 15:10 22.65 22.55 22.56 22.72 22.49 22.64
8/12/2018 15:00 to 14:10 22.49 22.50 22.46 22.38 22.62 22.43
8/12/2018 14:00 to 13:10 22.31 22.42 22.50 22.33 22.47 22.29
8/12/2018 13:00 to 12:10 22.43 22.44 22.28 22.35 22.46 22.29
8/12/2018 12:00 to 11:10 22.55 22.23 22.46 22.37 22.33 22.31
8/12/2018 11:00 to 10:10 22.34 22.36 22.25 22.36 22.41 22.46
8/12/2018 10:00 to 9:10 22.28 22.22 22.23 22.43 22.34 22.22
8/12/2018 09:00 to 8:10 22.32 22.46 22.31 22.32 22.37 22.34
8/12/2018 08:00 to 7:10 22.41 22.39 22.39 22.28 22.51 22.43
8/12/2018 07:00 to 6:10 22.37 22.37 22.56 22.51 22.54 22.49
8/12/2018 06:00 to 5:10 22.45 22.45 22.36 22.45 22.47 22.57
8/12/2018 05:00 to 4:10 22.63 22.53 22.56 22.68 22.53 22.57
8/12/2018 04:00 to 3:10 22.50 22.63 22.48 22.69 22.55 22.68
8/12/2018 03:00 to 2:10 22.54 22.62 22.63 22.60 22.56 22.51
8/12/2018 02:00 to 1:10 22.60 22.54 22.81 22.60 22.52 22.58
8/12/2018 01:00 to 0:10 22.63 22.53 22.56 22.49 22.38 22.29
8/12/2018 00:00 to 23:10 22.59 22.54 22.39 22.51 22.60 22.50
8/11/2018 23:00 to 22:10 22.57 22.52 22.53 22.64 22.50 22.50
8/11/2018 22:00 to 21:10 22.42 22.52 22.50 22.38 22.56 22.52
8/11/2018 21:00 to 20:10 22.46 22.55 22.56 22.55 22.59 22.71
8/11/2018 20:00 to 19:10 22.58 22.62 22.70 22.58 22.60 22.53
8/11/2018 19:00 to 18:10 22.52 22.45 22.64 22.47 22.55 22.54
8/11/2018 18:00 to 17:10 22.52 22.46 22.63 22.64 22.51 22.75
8/11/2018 17:00 to 16:10 22.68 22.72 22.75 22.73 22.76 23.08
8/11/2018 16:00 to 15:10 23.04 22.98 23.01 22.93 22.85 22.78
8/11/2018 15:00 to 14:10 22.84 22.74 22.72 22.69 22.72 22.58
8/11/2018 14:00 to 13:10 22.59 22.62 22.52 22.63 22.54 22.54
8/11/2018 13:00 to 12:10 22.55 22.54 22.47 22.43 22.60 22.48
8/11/2018 12:00 to 11:10 22.48 22.50 22.49 22.49 22.46 22.43
8/11/2018 11:00 to 10:10 22.47 22.43 22.45 22.48 22.45 22.56
8/11/2018 10:00 to 9:10 22.50 22.47 22.39 22.44 22.35 22.40
8/11/2018 09:00 to 8:10 22.49 22.29 22.25 22.20 22.32 22.03
8/11/2018 08:00 to 7:10 22.20 22.39 22.45 22.52 22.46 22.50
8/11/2018 07:00 to 6:10 22.53 22.76 22.55 22.72 22.70 22.84
8/11/2018 06:00 to 5:10 22.59 22.71 22.83 22.74 22.78 22.78
8/11/2018 05:00 to 4:10 22.76 22.69 22.68 22.78 22.84 22.82
8/11/2018 04:00 to 3:10 22.85 22.87 22.78 22.92 22.95 22.80
8/11/2018 03:00 to 2:10 22.84 22.89 22.78 22.75 22.68 22.77
8/11/2018 02:00 to 1:10 22.73 22.66 22.70 22.74 22.81 22.93
8/11/2018 01:00 to 0:10 22.80 22.69 22.75 22.77 22.73 22.73
8/11/2018 00:00 to 23:10 22.91 22.78 22.85 22.96 22.87 22.76
8/10/2018 23:00 to 22:10 22.59 22.75 22.69 22.35 22.35 22.55
8/10/2018 22:00 to 21:10 22.42 22.50 22.58 22.63 22.57 22.65
8/10/2018 21:00 to 20:10 22.71 22.67 22.70 22.46 22.56 22.43
8/10/2018 20:00 to 19:10 22.37 22.36 22.64 22.76 22.73 22.75
8/10/2018 19:00 to 18:10 22.62 22.65 22.67 22.72 22.63 22.62
8/10/2018 18:00 to 17:10 22.56 22.51 22.50 22.39 22.42 22.43
8/10/2018 17:00 to 16:10 22.16 22.09 21.84 21.84 21.57 21.98
8/10/2018 16:00 to 15:10 21.71 21.77 21.88 21.93 21.79 21.99
8/10/2018 15:00 to 14:10 22.17 22.36 22.40 22.29 22.21 22.29
8/10/2018 14:00 to 13:10 22.31 22.53 22.26 22.22 22.41 22.47
8/10/2018 13:00 to 12:10 22.52 22.50 22.50 22.44 22.31 22.30
8/10/2018 12:00 to 11:10 22.37 22.31 22.34 22.35 22.20 22.32
8/10/2018 11:00 to 10:10 22.34 22.25 22.26 22.35 22.32 22.28
8/10/2018 10:00 to 9:10 22.03 22.17 22.23 22.24 22.26 22.20
8/10/2018 09:00 to 8:10 22.24 22.32 22.32 22.29 22.41 22.36
8/10/2018 08:00 to 7:10 22.53 22.41 22.42 22.71 22.51 22.47
8/10/2018 07:00 to 6:10 22.54 22.47 22.54 22.58 22.60 22.54
8/10/2018 06:00 to 5:10 22.41 22.35 22.62 22.51 22.32 22.14
8/10/2018 05:00 to 4:10 22.19 22.39 22.41 22.48 22.56 22.53
8/10/2018 04:00 to 3:10 22.49 22.47 22.59 22.64 22.57 22.45
8/10/2018 03:00 to 2:10 22.44 22.48 22.51 22.37 22.41 22.46
8/10/2018 02:00 to 1:10 22.54 22.59 22.54 22.42 22.35 22.25
8/10/2018 01:00 to 0:10 22.23 22.18 22.27 22.67 22.65 22.55
8/10/2018 00:00 to 23:10 22.64 22.52 22.49 22.50 22.57 22.48
8/9/2018 23:00 to 22:10 22.43 22.49 22.48 22.68 22.55 22.52
8/9/2018 22:00 to 21:10 22.53 22.48 22.50 22.54 22.58 22.75
8/9/2018 21:00 to 20:10 22.58 22.75 22.65 22.75 22.64 22.66
8/9/2018 20:00 to 19:10 22.56 22.55 22.60 22.65 22.62 22.80
8/9/2018 19:00 to 18:10 22.71 22.59 22.62 22.75 22.76 22.69
8/9/2018 18:00 to 17:10 22.78 22.72 22.64 22.83 22.67 22.82
8/9/2018 17:00 to 16:10 22.71 22.59 22.59 22.59 22.57 22.27
8/9/2018 16:00 to 15:10 22.44 22.46 22.35 22.59 22.44 22.44
8/9/2018 15:00 to 14:10 22.18 22.11 22.17 22.07 22.02 22.01
8/9/2018 14:00 to 13:10 22.19 22.24 22.01 22.00 21.76 21.67
8/9/2018 13:00 to 12:10 21.89 22.27 22.34 21.98 22.10 21.85
8/9/2018 12:00 to 11:10 22.08 22.39 22.51 22.05 22.12 21.99
8/9/2018 11:00 to 10:10 21.89 22.27 22.09 22.45 22.47 22.59
8/9/2018 10:00 to 9:10 22.64 22.71 22.59 22.67 22.40 22.51
8/9/2018 09:00 to 8:10 22.58 22.73 22.48 22.29 22.29 22.28
8/9/2018 08:00 to 7:10 22.35 22.35 22.18 21.89 21.93 22.06
8/9/2018 07:00 to 6:10 21.76 21.46 22.14 21.98 21.95 22.16
8/9/2018 06:00 to 5:10 22.25 22.45 22.43 22.64 22.68 22.79
8/9/2018 05:00 to 4:10 22.62 22.66 22.90 22.94 22.92 22.91
8/9/2018 04:00 to 3:10 22.99 22.82 23.08 22.79 22.84 22.87
8/9/2018 03:00 to 2:10 22.78 22.67 22.67 22.64 22.80 22.89
8/9/2018 02:00 to 1:10 22.70 22.81 22.85 22.88 22.88 22.90
8/9/2018 01:00 to 0:10 22.79 22.78 22.77 22.74 22.74 22.67